Stündliche Wetter Kyulekyan

Heute, 10 Mai, Montag

Zeit Temperatur Niederschläge Wind Luftdruck Luftfeuchtigkeit
00:00 -1°C° 0 mm 3 m/S 754 mmHg 88%
01:00 -2°C° 0 mm 3 m/S 754 mmHg 89%
02:00 -2°C° 0 mm 3 m/S 754 mmHg 90%
03:00 -2°C° 0 mm 3 m/S 754 mmHg 90%
04:00 -2°C° 0 mm 3 m/S 754 mmHg 90%
05:00 -2°C° 0 mm 3 m/S 754 mmHg 90%
06:00 -1°C° 0 mm 3 m/S 754 mmHg 88%
07:00 0°C° 0 mm 3 m/S 754 mmHg 87%
08:00 0°C° 0 mm 3 m/S 754 mmHg 92%
09:00 -1°C° 0 mm 4 m/S 754 mmHg 89%
10:00 -1°C° 0 mm 4 m/S 754 mmHg 87%
11:00 0°C° 0 mm 5 m/S 754 mmHg 84%
12:00 0°C° 0 mm 5 m/S 755 mmHg 81%
13:00 0°C° 0 mm 5 m/S 755 mmHg 78%
14:00 0°C° 0 mm 5 m/S 755 mmHg 75%
15:00 0°C° 0 mm 5 m/S 755 mmHg 75%
16:00 0°C° 0 mm 5 m/S 755 mmHg 76%
17:00 0°C° 0 mm 5 m/S 755 mmHg 76%
18:00 -1°C° 0 mm 5 m/S 755 mmHg 78%
19:00 -1°C° 0 mm 5 m/S 755 mmHg 80%
20:00 -3°C° 0 mm 6 m/S 756 mmHg 82%
21:00 -3°C° 0 mm 6 m/S 755 mmHg 82%
22:00 -3°C° 0 mm 6 m/S 755 mmHg 83%
23:00 -4°C° 0 mm 6 m/S 755 mmHg 83%

Morgen, 11 Mai, Dienstag

Zeit Temperatur Niederschläge Wind Luftdruck Luftfeuchtigkeit
00:00 -4°C° 0 mm 6 m/S 755 mmHg 84%
01:00 -6°C° 0 mm 7 m/S 755 mmHg 85%
02:00 -7°C° 0 mm 7 m/S 755 mmHg 86%
03:00 -7°C° 0 mm 7 m/S 755 mmHg 85%
04:00 -7°C° 0 mm 7 m/S 755 mmHg 84%
05:00 -7°C° 0 mm 7 m/S 755 mmHg 82%
06:00 -6°C° 0 mm 8 m/S 755 mmHg 80%
07:00 -6°C° 0 mm 8 m/S 755 mmHg 77%
08:00 -5°C° 0 mm 8 m/S 755 mmHg 74%
09:00 -4°C° 0 mm 8 m/S 755 mmHg 71%
10:00 -2°C° 0 mm 8 m/S 755 mmHg 67%
11:00 -2°C° 0 mm 8 m/S 755 mmHg 64%
12:00 -1°C° 0 mm 8 m/S 755 mmHg 62%
13:00 -1°C° 0 mm 8 m/S 756 mmHg 60%
14:00 -1°C° 0 mm 7 m/S 756 mmHg 58%
15:00 -1°C° 0 mm 7 m/S 756 mmHg 58%
16:00 -1°C° 0 mm 7 m/S 756 mmHg 58%
17:00 0°C° 0 mm 7 m/S 756 mmHg 58%
18:00 -1°C° 0 mm 7 m/S 756 mmHg 61%
19:00 -2°C° 0 mm 7 m/S 756 mmHg 65%
20:00 -3°C° 0 mm 7 m/S 756 mmHg 68%
21:00 -4°C° 0 mm 7 m/S 756 mmHg 71%
22:00 -4°C° 0 mm 7 m/S 755 mmHg 73%
23:00 -5°C° 0 mm 6 m/S 755 mmHg 76%

übermorgen, 12 Mai, Mittwoch

Zeit Temperatur Niederschläge Wind Luftdruck Luftfeuchtigkeit
00:00 -6°C° 0 mm 7 m/S 755 mmHg 78%
01:00 -6°C° 0 mm 7 m/S 755 mmHg 80%
02:00 -7°C° 0 mm 7 m/S 755 mmHg 82%
03:00 -7°C° 0 mm 7 m/S 755 mmHg 81%
04:00 -7°C° 0 mm 7 m/S 754 mmHg 79%
05:00 -7°C° 0 mm 7 m/S 754 mmHg 78%
06:00 -6°C° 0 mm 7 m/S 754 mmHg 74%
07:00 -4°C° 0 mm 7 m/S 754 mmHg 70%
08:00 -3°C° 0 mm 6 m/S 754 mmHg 65%
09:00 -2°C° 0 mm 6 m/S 754 mmHg 62%
10:00 -2°C° 0 mm 6 m/S 754 mmHg 59%
11:00 -1°C° 0 mm 6 m/S 754 mmHg 55%
12:00 +1°C° 0 mm 6 m/S 753 mmHg 53%
13:00 +1°C° 0 mm 6 m/S 753 mmHg 51%
14:00 +2°C° 0 mm 5 m/S 753 mmHg 49%
15:00 +2°C° 0 mm 5 m/S 753 mmHg 48%
16:00 +2°C° 0 mm 5 m/S 753 mmHg 48%
17:00 +2°C° 0 mm 5 m/S 753 mmHg 47%
18:00 +1°C° 0 mm 4 m/S 753 mmHg 50%
19:00 0°C° 0 mm 4 m/S 753 mmHg 54%
20:00 +1°C° 0 mm 3 m/S 754 mmHg 58%
21:00 0°C° 0 mm 3 m/S 754 mmHg 61%
22:00 -1°C° 0 mm 3 m/S 754 mmHg 64%
23:00 -2°C° 0 mm 3 m/S 753 mmHg 66%

13 Mai, Donnerstag

Zeit Temperatur Niederschläge Wind Luftdruck Luftfeuchtigkeit
00:00 -2°C° 0 mm 3 m/S 753 mmHg 67%
01:00 -2°C° 0 mm 3 m/S 753 mmHg 68%
02:00 -2°C° 0 mm 3 m/S 753 mmHg 69%
03:00 -2°C° 0 mm 2 m/S 753 mmHg 67%
04:00 -1°C° 0 mm 2 m/S 753 mmHg 65%
05:00 -1°C° 0 mm 2 m/S 753 mmHg 63%
06:00 +2°C° 0 mm 1 m/S 753 mmHg 58%
07:00 +3°C° 0 mm 1 m/S 753 mmHg 54%
08:00 +4°C° 0 mm 1 m/S 753 mmHg 49%
09:00 +4°C° 0 mm 1 m/S 753 mmHg 47%
10:00 +4°C° 0 mm 2 m/S 752 mmHg 44%
11:00 +5°C° 0 mm 2 m/S 752 mmHg 42%
12:00 +5°C° 0 mm 2 m/S 752 mmHg 40%
13:00 +5°C° 0 mm 3 m/S 751 mmHg 39%
14:00 +7°C° 0 mm 3 m/S 751 mmHg 38%
15:00 +7°C° 0 mm 3 m/S 751 mmHg 38%
16:00 +6°C° 0 mm 4 m/S 751 mmHg 38%
17:00 +6°C° 0 mm 4 m/S 751 mmHg 39%
18:00 +6°C° 0 mm 4 m/S 750 mmHg 43%
19:00 +5°C° 0 mm 4 m/S 750 mmHg 47%
20:00 +4°C° 0 mm 4 m/S 750 mmHg 52%
21:00 +3°C° 0 mm 4 m/S 750 mmHg 56%
22:00 +1°C° 0 mm 4 m/S 750 mmHg 60%
23:00 +1°C° 0 mm 5 m/S 750 mmHg 65%

14 Mai, Freitag

Zeit Temperatur Niederschläge Wind Luftdruck Luftfeuchtigkeit
00:00 0°C° 0 mm 4 m/S 750 mmHg 66%
01:00 0°C° 0 mm 4 m/S 750 mmHg 67%
02:00 0°C° 0 mm 4 m/S 749 mmHg 68%
03:00 0°C° 0 mm 4 m/S 749 mmHg 67%
04:00 +1°C° 0 mm 4 m/S 749 mmHg 66%
05:00 +1°C° 0 mm 4 m/S 749 mmHg 64%
06:00 +2°C° 0 mm 5 m/S 749 mmHg 60%
07:00 +5°C° 0 mm 5 m/S 749 mmHg 55%
08:00 +6°C° 0 mm 5 m/S 749 mmHg 50%
09:00 +7°C° 0 mm 6 m/S 749 mmHg 47%
10:00 +8°C° 0 mm 6 m/S 749 mmHg 44%
11:00 +9°C° 0 mm 6 m/S 748 mmHg 41%
12:00 +9°C° 0 mm 6 m/S 748 mmHg 40%
13:00 +10°C° 0 mm 6 m/S 748 mmHg 39%
14:00 +10°C° 0 mm 6 m/S 748 mmHg 37%
15:00 +10°C° 0 mm 6 m/S 747 mmHg 37%
16:00 +10°C° 0 mm 6 m/S 747 mmHg 37%
17:00 +10°C° 0 mm 5 m/S 747 mmHg 37%
18:00 +10°C° 0 mm 5 m/S 747 mmHg 40%
19:00 +9°C° 0 mm 5 m/S 747 mmHg 43%
20:00 +8°C° 0 mm 5 m/S 747 mmHg 46%
21:00 +7°C° 0 mm 5 m/S 747 mmHg 50%
22:00 +6°C° 0 mm 5 m/S 747 mmHg 54%
23:00 +6°C° 0 mm 4 m/S 748 mmHg 57%

15 Mai, Samstag

Zeit Temperatur Niederschläge Wind Luftdruck Luftfeuchtigkeit
00:00 +5°C° 0 mm 4 m/S 747 mmHg 59%
01:00 +5°C° 0 mm 3 m/S 747 mmHg 60%
02:00 +4°C° 0 mm 3 m/S 747 mmHg 62%
03:00 +4°C° 0 mm 3 m/S 747 mmHg 61%
04:00 +4°C° 0 mm 3 m/S 747 mmHg 60%
05:00 +4°C° 0 mm 4 m/S 747 mmHg 60%
06:00 +6°C° 0 mm 4 m/S 747 mmHg 54%
07:00 +7°C° 0 mm 5 m/S 747 mmHg 49%
08:00 +8°C° 0 mm 5 m/S 747 mmHg 44%
09:00 +9°C° 0 mm 5 m/S 747 mmHg 41%
10:00 +10°C° 0 mm 5 m/S 747 mmHg 38%
11:00 +11°C° 0 mm 6 m/S 747 mmHg 34%
12:00 +11°C° 0 mm 6 m/S 746 mmHg 33%
13:00 +13°C° 0 mm 6 m/S 746 mmHg 32%
14:00 +13°C° 0 mm 6 m/S 746 mmHg 30%
15:00 +13°C° 0 mm 6 m/S 746 mmHg 30%
16:00 +13°C° 0 mm 6 m/S 746 mmHg 30%
17:00 +13°C° 0 mm 6 m/S 746 mmHg 30%
18:00 +12°C° 0 mm 5 m/S 746 mmHg 33%
19:00 +10°C° 0 mm 5 m/S 746 mmHg 36%
20:00 +10°C° 0 mm 4 m/S 746 mmHg 39%
21:00 +8°C° 0 mm 4 m/S 746 mmHg 42%
22:00 +7°C° 0 mm 4 m/S 746 mmHg 46%
23:00 +7°C° 0 mm 3 m/S 746 mmHg 49%
Mehr zeigen

Wir brauchen deine Erlaubnis

Meteoprog und unser Service Anbieter werden persönliche Daten aufbewahren, so wie Cookies, Geräte Bezeichnung oder ähnliche Technologien von deinem Gerät und Prozess, so wie Persönliche Daten Inhalte und Werbungen, genauso wie social Media und den Verkehr zu analysieren.

  • Aufbewahrung und/oder Zugang zu deiner Geräte Informationen.

    Cookies, Geräte Bezeichnung oder andere Informationen, können aufbewahrt oder Zugang zu deinem Gerät erhalten, für den Grund, der oben angegeben wird.

  • Personalisierte Werbung und Inhalte, Messungen, Einblick in das Publikum und Produkt Entwicklung.

    Werbungen und Inhalte können personalisiert werden, basierend auf ein Profil. Mehr Daten können besser personalisierte Werbungen und Inhalte hinzufügen. Werbung und Inhalte können gezeigt und gemessen werden. Einblicke über das Publikum, welche die Werbung gesehen haben und den Inhalt, können abgeleitet werden. So wie Daten können genutzt werden, um es zu verbessern oder die Benutzer Erfahrung zu verbessern das System und die Software.

Wenn du “Ich stimme zu” klickst, erlaubst du uns, die Cookies zu benutzen die Geräte Bezeichnung, den Web oder ähnliche Technologien zu benutzen. Deine Settings, können in deinem Gerät bei deinem Browser geändert werden.

Für den bestimmten Zweck, berechtigten Interessen beruhen darauf, mehr als auf den Inhalt. Du kannst mehr darüber in unseren Privaten und Cookie Politik lesen.